This demonstration page uses our WeatherBlox Daily Observations layout. Learn more.

Left ArrowRight Arrow

Hourly Observations for April 16, 2022

Temp ( °F °C ) Dew Point ( °F °C ) Humidity (%) Winds ( mph kmh ) Pressure ( in mb ) Visibility ( mi km ) Precip ( " mm )
12:53 am 00:53 Cloudy 37 2.8 15 -9.4 41 41 NNE 16 26 30.19 1022 10 16 0.00 0.00
1:53 am 01:53 Cloudy 37 2.8 14 -10 39 39 NNE 14 22 30.21 1023 10 16 0.00 0.00
2:53 am 02:53 Mostly Clear 35 1.7 13 -10.6 40 40 NNE 21 33 30.23 1024 10 16 0.00 0.00
3:53 am 03:53 Clear 32 0 13 -10.6 45 45 NNE 13 20 30.25 1024 10 16 0.00 0.00
4:53 am 04:53 Clear 29 -1.7 14 -10 54 54 NNE 10 17 30.30 1026 10 16 0.00 0.00
5:53 am 05:53 Clear 27 -2.8 14 -10 58 58 NNE 8 13 30.33 1027 10 16 0.00 0.00
6:53 am 06:53 Sunny 24 -4.4 13 -10.6 62 62 N 6 9 30.34 1027 10 16 0.00 0.00
7:53 am 07:53 Sunny 27 -2.8 15 -9.4 61 61 N 12 19 30.35 1028 10 16 0.00 0.00
8:53 am 08:53 Sunny 30 -1.1 15 -9.4 54 54 N 17 28 30.35 1028 10 16 0.00 0.00
9:53 am 09:53 Sunny 34 1.1 15 -9.4 46 46 NNE 17 28 30.37 1029 10 16 0.00 0.00
10:53 am 10:53 Sunny 38 3.3 15 -9.4 39 39 N 17 28 30.38 1029 10 16 0.00 0.00
11:53 am 11:53 Sunny 40 4.4 16 -8.9 38 38 NNE 13 20 30.36 1028 10 16 0.00 0.00
12:53 pm 12:53 Sunny 44 6.7 17 -8.3 34 34 N 15 24 30.33 1027 10 16 0.00 0.00
1:53 pm 13:53 Sunny 46 7.8 16 -8.9 30 30 NNE 8 13 30.30 1026 10 16 0.00 0.00
2:53 pm 14:53 Sunny 49 9.4 14 -10 25 25 NE 13 20 30.27 1025 10 16 0.00 0.00
3:53 pm 15:53 Sunny 50 10 13 -10.6 22 22 E 8 13 30.24 1024 10 16 0.00 0.00
4:53 pm 16:53 Sunny 50 10 12 -11.1 22 22 E 9 15 30.22 1023 10 16 0.00 0.00
5:53 pm 17:53 Sunny 51 10.6 12 -11.1 21 21 ENE 10 17 30.20 1023 10 16 0.00 0.00
6:53 pm 18:53 Mostly Cloudy 49 9.4 11 -11.7 21 21 E 8 13 30.19 1023 10 16 0.00 0.00
7:53 pm 19:53 Partly Cloudy 47 8.3 11 -11.7 23 23 E 8 13 30.19 1022 10 16 0.00 0.00
8:53 pm 20:53 Mostly Cloudy 45 7.2 11 -11.7 25 25 E 12 19 30.18 1022 10 16 0.00 0.00
9:53 pm 21:53 Clear 44 6.7 12 -11.1 27 27 E 13 20 30.18 1022 10 16 0.00 0.00
10:53 pm 22:53 Cloudy 44 6.7 12 -11.1 27 27 E 12 19 30.17 1022 10 16 0.00 0.00
11:53 pm 23:53 Cloudy 43 6.1 12 -11.1 28 28 E 10 17 30.17 1022 10 16 0.00 0.00

Powered by AerisWeather